Simultaneous Nadir Overpasses (SNOs) Predictions

Prediction of SNOs between GOES-16 and TERRA Satellite Orbit:

Table of predicted SNOs for the next 14.0 days since TLE Epoch: 1/7/2017
Index Date Time (GOES-16) GOES-16 Lat,Lon TERRA Lat,Lon Distance(km) Time Diff (sec)
1 01/07/2017 04:13:17 -0.01, -89.46 0.84, -85.53 447.65 80
2 01/07/2017 16:31:52 0.01, -89.48 0.28, -90.68 136.28 80
3 01/09/2017 16:22:20 0.01, -89.50 -0.37, -87.72 202.06 80
4 01/10/2017 04:41:04 -0.01, -89.49 -0.72, -92.92 389.70 80
5 01/12/2017 04:28:51 -0.01, -89.51 -0.12, -89.95 50.89 80
6 01/14/2017 04:19:19 -0.02, -89.53 0.54, -87.00 288.65 80
7 01/14/2017 16:37:54 0.02, -89.56 0.58, -92.15 294.95 80
8 01/16/2017 16:28:21 0.03, -89.59 -0.03, -89.18 45.50 80
9 01/18/2017 16:16:09 0.03, -89.63 -0.71, -86.23 386.25 80
10 01/19/2017 04:34:52 -0.03, -89.62 -0.43, -91.42 204.80 80




NCC Satellite Simultaneous Nadir Overpasses (SNOs) Prediction Service
